FENGYUN 1C DEB, 30892

Orbit data source: Space-Track

FENGYUN 1C DEB, 30892 is space debris in SSO originally from a launch on Mon, 10 May 1999 UTC launched from the Taiyaun Space Center, China (TSC). Fengyun 1C debris stems from the Chinese weather satellite Fengyun-1C, which was intentionally destroyed by a Chinese anti-satellite missile in 2007. This event dramatically increased the amount of space debris, with thousands of trackable fragments posing hazards to satellites and human spaceflight. The Fengyun 1C debris cloud has become a focal point in discussions about space sustainability and the need for international regulations to prevent the creation of new debris.

Loading next visibility...
Identifier
30892, 1999-025AYE
Orbit
SSO
Country
Flag of CNCN / PRC
Related business
Manufacturer
Unknown
Mission
Spacecraft
Bus & Motor
Unknown
Mass
Unknown
Launch date (UTC)
1999-05-10 (27 years ago)
Launch vehicle
Unknown
Launch site
Taiyaun Space Center, China (TSC)
Object type
Payload
Rocket body
Debris
Shape & HBR
Unknown shape, 0.1 m
Radar Cross Section
Small (<0.1 m²)

Expand to show TLE details & history
Last TLE update: 3 days ago

TLE from 3 days ago
0 FENGYUN 1C DEB
1 30892U 99025AYE 26206.15457706  .00000617  00000-0  31675-3 0  9997
2 30892  99.6865 174.7721 0037196 284.7531  74.9522 14.19293781674867
Epoch: 2026-07-25T03:42Z
TLE epoch observation values (Epoch: 2026-07-25T03:42:35.457Z)
Latitude
0.00001°
Longitude
176.25343°
Altitude
823.756 km
Speed
7.445 km/s
True Right ascension
11h 39m 05s
True Declination
0° 00' 00"
Sunlit
Object was in daylight at epoch
Visualization orbit readout
Latitude
Unknown
Longitude
Unknown
Altitude
Unknown
Speed
Unknown
Apparent Right ascension
Unknown
Apparent Declination
Unknown
Sunlit
N/A
Visualization observer readout
Local Sidereal Time
19:37:02
Azimuth
Unknown
Elevation
Unknown
Doppler factor
Unknown
Orbital elements
Apogee altitude
851.744 km
Perigee altitude
798.158 km
Semi-major axis
7,203.088 km
Eccentricity
0.00372
Inclination
99.6865°
RAAN
174.7721°
Arg. of periapsis
284.7531°
True anomaly
75.36431°
Mean anomaly
74.9522°
Eccentric anomaly
75.15821°
Mean motion
3.5503 °/min
Orbital period
101.4 mins
BSTAR
0.00031675
Loading maneuver chart data...
Computing Atmospheric mass density...
Loading historical data...
Loading historical data...
Loading historical data...
Loading historical data...
Loading historical data...
Loading historical data...
Loading historical data...

Documentation

Showing up to 5 results
|